Weather Service Report


714 
ASUS45 KTFX 241110
RWRMT 
MONTANA REGIONAL WEATHER ROUNDUP
NATIONAL WEATHER SERVICE GREAT FALLS MT
400 AM MST TUE JAN 24 2017

NOTE: "FAIR" INDICATES FEW OR NO CLOUDS BELOW 12000 FEET WITH NO
SIGNIFICANT WEATHER AND/OR OBSTRUCTIONS TO VISIBILITY.

MTZ001>007-043-241200-
WEST OF THE DIVIDE
  
CITY           SKY/WX    TMP DP  RH WIND       PRES   REMARKS
KALISPELL      CLOUDY     9   7  92 NW5       29.88R                  
MISSOULA       PTCLDY    20  16  84 SE10      29.87R WCI   9          
BUTTE          CLOUDY    14   9  80 CALM      29.74R                  
MULLAN PASS    CLEAR     17  15  92 CALM      29.73S                  
ANACONDA         N/A     14  10  85 CALM      29.79R                  
DEER LODGE       N/A      9   5  85 CALM      29.83S                  
EUREKA           N/A     14  10  85 CALM      29.92R                  
HAMILTON         N/A     21  19  93 CALM      29.83                   
PLAINS           N/A     25  20  81 N3        29.90R                  
RONAN            N/A     16  12  84 CALM      29.89R                  
$$

MTZ008-052>055-241200-
SOUTHWEST MONTANA
  
CITY           SKY/WX    TMP DP  RH WIND       PRES   REMARKS
BOZEMAN        LGT SNOW  20  17  88 CALM      29.76R FOG              
DILLON         CLOUDY    19  13  77 NE7       29.69R WCI  10          
W YELLOWSTONE  LGT SNOW  18  14  86 NE3       29.59R                  
ENNIS          CLOUDY    18  14  86 N20G26    29.72R WCI   1          
TWIN BRIDGES     N/A     20  11  68 N10       29.72R WCI   9          
$$

MTZ009-010-012-014-046-048-049-054-241200-
EAST SLOPES AND CENTRAL MONTANA
  
CITY           SKY/WX    TMP DP  RH WIND       PRES   REMARKS
CUT BANK       CLOUDY     5   2  87 NW6       29.82R WCI  -6          
GREAT FALLS    CLOUDY    18  14  84 S5        29.85S                  
MALMSTROM AFB  CLOUDY    17  16  93 SW8       29.87S WCI   7          
HELENA         CLOUDY    16  11  80 W7        29.84S WCI   6          
BOWMANS CRNR   MOCLDY    11   9  94 SW7       29.80S WCI   0          
CHOTEAU          N/A     10   7  85 SW8       29.84S WCI  -1          
CONRAD           N/A     -3  -8  79 NW5       29.85S                  
POWER          MOCLDY    13  12  98 SW10      29.82F WCI   0          
RAYNESFORD     MOCLDY    15  13  90 SW3       29.83F                  
ULM            CLOUDY    19  16  88 MISG      29.86S                  
$$

MTZ011-013-016-021-045-047-050-051-241200-
NORTH CENTRAL MONTANA
  
CITY           SKY/WX    TMP DP  RH WIND       PRES   REMARKS
HAVRE          CLOUDY    21  18  88 NW5       29.88R                  
LEWISTOWN      CLOUDY    16  14  92 W7        29.81S WCI   6          
CHINOOK          N/A     19  16  86 NW9       29.89R WCI   9          
DENTON         CLOUDY    18  17  95 SE12G21   29.81S WCI   5          
FORT BENTON      N/A     21  16  79 MISG      29.90S                  
GEYSER         MOCLDY    15  12  90 W8        29.82R WCI   3          
GRASS RANGE    MOCLDY    17  15  89 W15       29.79R WCI   3          
JUDITH GAP     CLOUDY    15  12  90 N16       29.77S WCI  -1          
ROY            FLURRIES  17  16  95 MISG      29.82S                  
STANFORD         N/A      9   9  98 NW5       29.80S                  
WINIFRED       CLOUDY    17  17  96 W6        29.83R WCI   9          
$$

MTZ017>020-022>027-061-062-241200-
NORTHEAST MONTANA
  
CITY           SKY/WX    TMP DP  RH WIND       PRES   REMARKS
GLASGOW        FLURRIES  19  15  84 NW8       29.87S WCI   9          
JORDAN           N/A     21  17  84 W6        29.86S WCI  13          
SIDNEY         CLOUDY    22  17  81 W5        29.88S                  
WOLF POINT     CLOUDY    21  15  78 W5        29.89S                  
PLENTYWOOD       N/A     18  12  79 W8        29.85S WCI   7          
SCOBEY           N/A     16   9  74 W3        29.84R                  
$$

MTZ028>42-056>058-241200-
SOUTHCENTRAL AND SOUTHEAST MONTANA
  
CITY           SKY/WX    TMP DP  RH WIND       PRES   REMARKS
BAKER          CLOUDY    21  19  92 NW6       29.81F FOG     WCI  13  
BILLINGS       FLURRIES  22  21  96 NE7       29.80S WCI  13          
LIVINGSTON     FLURRIES  21  18  88 E6        29.75R WCI  13          
MILES CITY     CLOUDY    22  19  89 N8        29.85R WCI  12          
BIG TIMBER     CLOUDY    21  19  93 N7        29.79S WCI  13          
EKALAKA          N/A     18  13  80 N3        29.76F                  
FORSYTH          N/A     21  21 100 CALM      29.85R                  
HARLOWTON      MOCLDY    15  13  92 N7        29.78S WCI   6          
LAUREL           N/A     23  18  81 N7        29.80R WCI  15          
$$

REGIONAL REPORTS...DAKOTAS
  
CITY           SKY/WX    TMP DP  RH WIND       PRES   REMARKS
WILLISTON      CLOUDY    21  16  81 NW10      29.87S WCI  10          
MINOT          CLOUDY    24  19  81 W12       29.84R WCI  13          
DICKINSON      CLOUDY    20  17  88 NW8       29.80S WCI  10          
BEACH          CLOUDY    19  19 100 N10       29.86S FOG     WCI   8  
CROSBY         CLOUDY    18  18 100 NW10      29.88R WCI   6          
TIOGA          CLOUDY    18  18 100 NW12      29.85S WCI   5          
WATFORD CITY   CLOUDY    21  19  93 W7        29.86S WCI  13          
BISMARCK       CLOUDY    25  19  78 NW6       29.87S WCI  18          
GRAND FORKS    CLOUDY    26  19  74 W8        29.87R WCI  18          
FARGO          FLURRIES  32  26  78 W6        29.87S WCI  26          
BUFFALO SD       N/A     23  19  85 N14       29.69F WCI  11          
RAPID CITY     CLOUDY    22  21  96 N21       29.71F FOG     WCI   6  
$$

REGIONAL REPORTS...WYOMING/IDAHO/WASHINGTON
  
CITY           SKY/WX    TMP DP  RH WIND       PRES   REMARKS
GILLETTE       LGT SNOW  17  15  92 N13       29.68S VSB 1   WCI   4  
SHERIDAN       LGT SNOW  20  17  88 VRB7      29.76R FOG     WCI  11  
BUFFALO WY     LGT SNOW  19  14  81 N26G37    29.64S WCI   1          
CODY           LGT SNOW  19  15  84 NW14      29.68S FOG     WCI   6  
YELLOWSTONE LA   N/A     15  12  88 CALM      29.54S                  
IDAHO FALLS    LGT SNOW  24  23  96 W9        29.61S FOG     WCI  14  
SALMON         CLOUDY    10  10 100 CALM      29.74R                  
BOISE          CLOUDY    27  22  81 NW12      29.74R WCI  17          
SPOKANE        FOG       29  29 100 W5        29.92R VSB 1/4          
$$

REGIONAL REPORTS...ALBERTA
  
CITY           SKY/WX    TMP DP  RH WIND       PRES   REMARKS
EDMONTON       CLOUDY    18  10  73 SW2       29.88S                  
CALGARY        FOG       16  14  93 NE3       29.83R VSB 1/2          
LETHBRIDGE     CLOUDY    12 N/A N/A E3        29.86S                  
MEDICINE HAT   CLOUDY    16  14  93 W6        29.91R WCI   7          
WATERTON GATE    N/A     18  12  79 SW6         N/A  WCI   9          
CARDSTON         N/A     18  12  79 S2          N/A                   
MILK RIVER       N/A      5   3  92 NW2         N/A                   
ONEFOUR          N/A     16  14  93 NW9         N/A  WCI   4          
$$

REGIONAL REPORTS...SASKATCHEWAN
  
CITY           SKY/WX    TMP DP  RH WIND       PRES   REMARKS
SWIFT CURRENT  FLURRIES  10   9  92 NW15      29.82S WCI  -6          
REGINA         CLOUDY    14  12  92 NW10      29.85S WCI   1          
SASKATOON      FLURRIES   9   5  85 NW7       29.92R WCI  -3          
CYPRESS HILLS    N/A     10   7  85 NW1         N/A                   
ASSINIBOIA       N/A     10   9  92 CALM        N/A                   
$$
  

Return to Home page


Western Regional Climate Center, wrcc@dri.edu